FW3348 Beaufort SC US current weather conditions

sailwx.info

Wind from 211 at 16 knots gusting 19

Air temperature 12.8° C
Dewpoint 7.6° C

Last reported at 2020-Feb-27 04:09 UTC.
Time now 2020-Feb-27 04:41 UTC

Location: N 32°25' W 080°43'.
View on Google Maps.

See reports from other nearby stations

  
Tides and Currents Weather Stations Pressure Air Temp Water Temp Dewpoint Dewpoint Depression Visibility Wind Speed Wind Dir Waves Ship Positions
date/time (UTC)wind fromknots sea level pressurealtimeterstation pressurevisibilityair tempwater tempwave heightnotes
2020-Feb-27 04:09 211 16 gusting 19 12.8
2020-Feb-27 04:04 253 4 gusting 17 12.8
2020-Feb-27 03:58 289 5 gusting 13 12.8
2020-Feb-27 03:53 254 1 gusting 19 12.8
2020-Feb-27 03:48 162 5 gusting 19 13.3
2020-Feb-27 03:43 265 8 gusting 11 13.3
2020-Feb-27 03:38 086 0 gusting 21 13.3
2020-Feb-27 03:33 236 5 gusting 14 13.3
2020-Feb-27 03:28 213 6 gusting 14 13.3
2020-Feb-27 03:23 280 0 gusting 11 13.3
2020-Feb-27 03:18 218 0 gusting 11 13.3
2020-Feb-27 03:13 264 4 gusting 8 13.3
2020-Feb-27 03:08 261 4 gusting 8 13.3
2020-Feb-27 03:02 174 1 gusting 11 13.3
2020-Feb-27 02:57 256 5 gusting 11 13.3
2020-Feb-27 02:52 261 5 gusting 11 13.3
2020-Feb-27 02:47 247 6 gusting 11 13.3
2020-Feb-27 02:42 323 0 gusting 11 13.3
2020-Feb-27 02:37 252 6 gusting 8 13.3
2020-Feb-27 02:32 273 4 gusting 8 13.3
2020-Feb-27 02:27 264 0 gusting 11 13.3
2020-Feb-27 02:22 328 4 gusting 11 13.3
2020-Feb-27 02:17 259 4 gusting 13 13.3
2020-Feb-27 02:12 334 13.3
2020-Feb-27 02:06 001 13.3
2020-Feb-27 02:01 232 4 gusting 6 13.3
2020-Feb-27 01:56 263 1 gusting 6 13.3
2020-Feb-27 01:51 001 2 gusting 11 13.3
2020-Feb-27 01:46 208 1 gusting 11 13.3
2020-Feb-27 01:41 242 13.3
2020-Feb-27 01:36 249 6 gusting 8 13.3
2020-Feb-27 01:31 263 0 gusting 8 13.9
2020-Feb-27 01:26 299 13.9
2020-Feb-27 01:21 013 0 gusting 14 13.9
2020-Feb-27 01:16 259 4 gusting 6 13.9
2020-Feb-27 01:10 249 3 gusting 8 13.9
2020-Feb-27 01:05 209 0 gusting 8 13.3
2020-Feb-27 01:00 315 0 gusting 11 13.3
2020-Feb-27 00:55 263 1 gusting 11 13.3
2020-Feb-27 00:50 237 1 gusting 6 13.3
2020-Feb-27 00:45 258 4 gusting 6 13.3
2020-Feb-27 00:40 238 13.3
2020-Feb-27 00:35 234 3 gusting 4 13.3
2020-Feb-27 00:30 248 13.9
2020-Feb-27 00:25 255 1 gusting 8 13.9
2020-Feb-27 00:20 355 1 gusting 6 13.9
2020-Feb-27 00:14 077 0 gusting 6 13.9
2020-Feb-27 00:09 281 0 gusting 11 14.4
2020-Feb-27 00:04 078 15.0
2020-Feb-26 23:59 250 4 gusting 11 15.0
2020-Feb-26 23:54 266 1 gusting 11 15.6
2020-Feb-26 23:49 074 1 gusting 11 16.1
2020-Feb-26 23:44 272 6 gusting 8 16.1
2020-Feb-26 23:39 246 1 gusting 4 16.1
2020-Feb-26 23:34 234 1 gusting 4 16.1
2020-Feb-26 23:29 242 16.7
2020-Feb-26 23:24 227 16.7
2020-Feb-26 23:18 253 1 gusting 4 16.7
2020-Feb-26 23:13 182 16.7
2020-Feb-26 23:08 245 1 gusting 6 16.7
2020-Feb-26 23:03 283 1 gusting 4 16.7
2020-Feb-26 22:58 236 16.7
2020-Feb-26 22:53 225 16.7
2020-Feb-26 22:48 245 0 gusting 4 16.7
2020-Feb-26 22:43 249 16.7
2020-Feb-26 22:38 230 16.7
2020-Feb-26 22:33 135 16.7
2020-Feb-26 22:28 253 0 gusting 4 16.7
2020-Feb-26 22:22 225 16.7
2020-Feb-26 22:17 243 16.7
2020-Feb-26 22:12 070 16.7
2020-Feb-26 22:07 245 0 gusting 4 17.2
2020-Feb-26 22:02 261 1 gusting 4 17.2
2020-Feb-26 21:57 245 1 gusting 4 17.2
2020-Feb-26 21:52 219 17.2
2020-Feb-26 21:47 253 2 gusting 6 17.2
2020-Feb-26 21:42 254 0 gusting 6 17.2
2020-Feb-26 21:37 244 4 gusting 6 17.2
2020-Feb-26 21:32 204 0 gusting 6 17.2
2020-Feb-26 21:26 249 2 gusting 6 17.2
2020-Feb-26 21:21 242 6 gusting 6 17.2
2020-Feb-26 21:16 235 0 gusting 6 17.8
2020-Feb-26 21:11 222 0 gusting 6 17.8
2020-Feb-26 21:06 240 1 gusting 6 17.8
2020-Feb-26 21:01 232 1 gusting 6 17.8
2020-Feb-26 20:56 239 1 gusting 6 17.8
2020-Feb-26 20:51 222 17.8
2020-Feb-26 20:46 230 2 gusting 6 17.8
2020-Feb-26 20:41 214 2 gusting 6 17.8
2020-Feb-26 20:36 257 2 gusting 8 17.8
2020-Feb-26 20:30 257 3 gusting 6 17.8
2020-Feb-26 20:25 265 1 gusting 4 18.3
2020-Feb-26 20:20 229 0 gusting 6 18.3
2020-Feb-26 20:15 264 0 gusting 6 18.3
2020-Feb-26 20:10 181 18.3
2020-Feb-26 20:05 260 0 gusting 4 18.3
2020-Feb-26 20:00 147 18.3
2020-Feb-26 19:55 277 0 gusting 4 18.3
2020-Feb-26 19:50 229 18.3
2020-Feb-26 19:45 287 2 gusting 4 18.3
2020-Feb-26 19:40 243 1 gusting 4 18.3
2020-Feb-26 19:34 217 18.3
2020-Feb-26 19:29 217 18.3
2020-Feb-26 19:24 249 1 gusting 4 18.3
2020-Feb-26 19:19 164 18.3
2020-Feb-26 19:09 220 17.8
2020-Feb-26 19:04 242 17.8
2020-Feb-26 18:59 226 17.8
2020-Feb-26 18:54 136 1 gusting 4 17.8
2020-Feb-26 18:49 241 17.8
2020-Feb-26 18:44 253 1 gusting 6 17.8
2020-Feb-26 18:38 254 0 gusting 6 17.8
2020-Feb-26 18:33 253 0 gusting 6 17.8
2020-Feb-26 18:28 199 1 gusting 4 17.8
2020-Feb-26 18:23 271 3 gusting 4 17.8
2020-Feb-26 18:18 220 1 gusting 8 17.8
2020-Feb-26 18:13 247 0 gusting 8 17.8
2020-Feb-26 18:08 154 3 gusting 8 18.3
2020-Feb-26 18:03 239 2 gusting 8 18.3
2020-Feb-26 17:58 230 1 gusting 8 18.3
2020-Feb-26 17:53 240 0 gusting 6 18.3
2020-Feb-26 17:48 260 0 gusting 6 18.9
2020-Feb-26 17:42 213 1 gusting 6 18.9
2020-Feb-26 17:37 150 0 gusting 6 18.9
2020-Feb-26 17:32 111 1 gusting 6 18.9
2020-Feb-26 17:27 227 19.4
2020-Feb-26 17:22 248 0 gusting 6 19.4
2020-Feb-26 17:17 151 3 gusting 6 19.4
2020-Feb-26 17:12 174 19.4
2020-Feb-26 17:07 230 0 gusting 4 20.0
2020-Feb-26 17:02 147 2 gusting 4 20.0
2020-Feb-26 16:57 224 20.6
2020-Feb-26 16:52 236 20.6
2020-Feb-26 16:46 220 4 gusting 6 20.6
2020-Feb-26 16:41 250 0 gusting 6 20.0
2020-Feb-26 16:36 278 2 gusting 4 20.0
2020-Feb-26 16:31 228 0 gusting 4 20.0
2020-Feb-26 16:26 161 2 gusting 4 19.4
2020-Feb-26 16:21 268 2 gusting 4 19.4
2020-Feb-26 16:16 263 19.4
2020-Feb-26 16:11 249 19.4
2020-Feb-26 16:06 257 19.4
2020-Feb-26 16:01 225 0 gusting 1 19.4
2020-Feb-26 15:56 238 19.4
2020-Feb-26 15:50 250 19.4
2020-Feb-26 15:45 296 19.4
2020-Feb-26 15:40 224 19.4
2020-Feb-26 15:35 133 1 gusting 4 19.4
2020-Feb-26 15:30 321 19.4
2020-Feb-26 15:25 264 0 gusting 8 18.9
2020-Feb-26 15:20 267 2 gusting 8 18.9
2020-Feb-26 15:15 009 18.9
2020-Feb-26 15:10 267 2 gusting 4 18.9
2020-Feb-26 15:05 195 18.9
2020-Feb-26 15:00 206 18.9
2020-Feb-26 14:55 269 18.3
2020-Feb-26 14:49 268 18.3
2020-Feb-26 14:44 098 18.3
2020-Feb-26 14:39 216 18.3
2020-Feb-26 14:34 219 18.3
2020-Feb-26 14:29 219 17.8
2020-Feb-26 14:24 203 17.8
2020-Feb-26 14:19 246 17.8
2020-Feb-26 14:14 254 17.8
2020-Feb-26 14:09 235 17.8
2020-Feb-26 14:04 243 17.8
2020-Feb-26 13:58 247 17.8
2020-Feb-26 13:53 191 17.8
2020-Feb-26 13:48 233 17.8
2020-Feb-26 13:43 160 17.8
2020-Feb-26 13:38 213 17.2
2020-Feb-26 13:33 229 17.2
2020-Feb-26 13:28 197 17.2
2020-Feb-26 13:23 204 17.2
2020-Feb-26 13:18 204 17.2
2020-Feb-26 13:13 206 17.2
2020-Feb-26 13:08 139 17.2
2020-Feb-26 13:03 132 16.7
2020-Feb-26 12:57 133 16.7
2020-Feb-26 12:52 127 16.7
2020-Feb-26 12:47 123 16.7
2020-Feb-26 12:42 122 17.2
2020-Feb-26 12:37 122 17.2
2020-Feb-26 12:32 107 17.2
2020-Feb-26 12:27 160 16.7
2020-Feb-26 12:22 160 16.7
2020-Feb-26 12:17 160 16.7
2020-Feb-26 12:12 163 16.7
2020-Feb-26 12:07 169 16.7
2020-Feb-26 12:01 230 16.7
2020-Feb-26 11:56 223 16.7
2020-Feb-26 11:51 088 16.7
2020-Feb-26 11:46 117 16.7
2020-Feb-26 11:41 042 16.7
2020-Feb-26 11:36 056 16.7
2020-Feb-26 11:31 075 16.7
2020-Feb-26 11:26 122 16.7
2020-Feb-26 11:21 194 16.7
2020-Feb-26 11:16 238 16.7
2020-Feb-26 11:11 217 16.7
2020-Feb-26 11:05 240 16.7
2020-Feb-26 11:00 240 16.7
2020-Feb-26 10:55 240 16.7
2020-Feb-26 10:50 219 16.7
2020-Feb-26 10:45 220 16.7
2020-Feb-26 10:40 141 17.2
2020-Feb-26 10:35 174 17.2
2020-Feb-26 10:30 164 17.2
2020-Feb-26 10:25 184 17.2
2020-Feb-26 10:20 184 17.2
2020-Feb-26 10:15 184 17.2
2020-Feb-26 10:09 184 17.2
2020-Feb-26 10:04 184 17.2
2020-Feb-26 09:59 184 17.2
2020-Feb-26 09:54 184 17.2
2020-Feb-26 09:49 230 17.2
2020-Feb-26 09:44 237 17.2
2020-Feb-26 09:39 191 17.2
2020-Feb-26 09:34 179 17.2
2020-Feb-26 09:29 184 17.2
2020-Feb-26 09:24 227 17.2
2020-Feb-26 09:19 201 17.2
2020-Feb-26 09:13 259 17.2
2020-Feb-26 09:08 241 17.2
2020-Feb-26 09:03 231 17.8
2020-Feb-26 08:58 254 0 gusting 1 17.8
2020-Feb-26 08:53 097 17.8
2020-Feb-26 08:48 241 17.8
2020-Feb-26 08:43 228 17.8
2020-Feb-26 08:38 240 0 gusting 1 17.8
2020-Feb-26 08:33 241 17.8
2020-Feb-26 08:28 210 17.8
2020-Feb-26 08:23 202 17.2
2020-Feb-26 08:18 232 17.2
2020-Feb-26 08:12 172 17.2
2020-Feb-26 08:07 218 17.2
2020-Feb-26 08:02 300 17.2
2020-Feb-26 07:57 199 17.2
2020-Feb-26 07:52 239 17.2
2020-Feb-26 07:47 240 17.2
2020-Feb-26 07:42 206 17.2
2020-Feb-26 07:37 197 17.2
2020-Feb-26 07:32 198 17.2
2020-Feb-26 07:27 230 17.2
2020-Feb-26 07:22 183 17.2
2020-Feb-26 07:16 177 17.2
2020-Feb-26 07:11 154 17.2
2020-Feb-26 07:06 243 17.2
2020-Feb-26 07:01 172 17.8
2020-Feb-26 06:56 171 17.8
2020-Feb-26 06:51 183 17.8
2020-Feb-26 06:46 239 17.8
2020-Feb-26 06:41 182 17.8
2020-Feb-26 06:36 173 17.8
2020-Feb-26 06:31 179 17.8
2020-Feb-26 06:26 182 17.8
2020-Feb-26 06:20 204 17.8
2020-Feb-26 06:15 228 17.8
2020-Feb-26 06:10 265 1 gusting 1 17.8
2020-Feb-26 06:05 226 17.8
2020-Feb-26 06:00 235 17.8
2020-Feb-26 05:55 206 17.8
2020-Feb-26 05:50 236 17.2
2020-Feb-26 05:45 253 17.2
2020-Feb-26 05:40 205 17.2
2020-Feb-26 05:35 235 17.2
2020-Feb-26 05:30 250 17.2
2020-Feb-26 05:24 177 17.2
2020-Feb-26 05:19 244 17.2
2020-Feb-26 05:14 244 17.2
2020-Feb-26 05:09 249 17.2
2020-Feb-26 05:04 186 17.2
2020-Feb-26 04:59 222 17.2
2020-Feb-26 04:54 210 16.7
2020-Feb-26 04:49 210 16.7
2020-Feb-26 04:44 244 16.7
2020-Feb-26 04:39 228 16.7
2020-Feb-26 04:34 354 17.2
2020-Feb-26 04:29 167 17.2
2020-Feb-26 04:23 164 17.2
2020-Feb-26 04:18 176 17.2
2020-Feb-26 04:13 172 17.2
2020-Feb-26 04:08 172 17.2
2020-Feb-26 04:03 167 17.2
2020-Feb-26 03:58 171 17.2
2020-Feb-26 03:53 172 17.2
2020-Feb-26 03:48 172 17.2
2020-Feb-26 03:43 167 17.2
2020-Feb-26 03:38 168 17.2
2020-Feb-26 03:33 142 17.2
2020-Feb-26 03:27 248 17.2
2020-Feb-26 03:22 178 17.2
2020-Feb-26 03:17 178 17.2
2020-Feb-26 03:12 151 17.2
2020-Feb-26 03:07 238 16.7
2020-Feb-26 03:02 231 0 gusting 4 16.7
2020-Feb-26 02:57 234 16.7
2020-Feb-26 02:52 244 16.7
2020-Feb-26 02:47 163 1 gusting 4 17.2
2020-Feb-26 02:42 249 17.2
2020-Feb-26 02:37 187 17.2
2020-Feb-26 02:31 131 17.2
2020-Feb-26 02:26 203 0 gusting 4 17.2
2020-Feb-26 02:21 190 17.2
2020-Feb-26 02:16 240 17.2
2020-Feb-26 02:11 256 0 gusting 4 17.2
2020-Feb-26 02:06 189 17.2
2020-Feb-26 02:01 230 17.2
2020-Feb-26 01:56 207 17.2
2020-Feb-26 01:51 182 17.2
2020-Feb-26 01:46 234 17.2
2020-Feb-26 01:41 210 17.2
2020-Feb-26 01:35 173 17.2
2020-Feb-26 01:30 239 17.2
2020-Feb-26 01:25 248 17.2
2020-Feb-26 01:20 167 0 gusting 4 17.2
2020-Feb-26 01:15 248 17.2
2020-Feb-26 01:10 248 0 gusting 4 17.2
2020-Feb-26 01:05 218 17.2
2020-Feb-26 01:00 245 2 gusting 6 17.2
2020-Feb-26 00:55 242 17.2
2020-Feb-26 00:50 253 1 gusting 4 17.2
2020-Feb-26 00:45 200 0 gusting 8 17.2
2020-Feb-26 00:39 176 2 gusting 8 16.7
2020-Feb-26 00:34 142 1 gusting 4 16.7
2020-Feb-26 00:29 238 16.7
2020-Feb-26 00:24 234 16.7
2020-Feb-26 00:19 188 1 gusting 6 16.7
2020-Feb-26 00:14 097 2 gusting 6 16.7
2020-Feb-26 00:09 232 16.7
2020-Feb-26 00:04 170 1 gusting 6 16.7
2020-Feb-25 23:59 238 16.7
2020-Feb-25 23:54 230 5 gusting 8 16.7
2020-Feb-25 23:49 208 1 gusting 8 16.7
2020-Feb-25 23:43 258 2 gusting 8 16.7
2020-Feb-25 23:38 238 17.2
2020-Feb-25 23:33 260 2 gusting 11 17.2
2020-Feb-25 23:28 247 0 gusting 8 17.2
2020-Feb-25 23:23 178 17.2
2020-Feb-25 23:18 235 1 gusting 11 17.2
2020-Feb-25 23:13 215 17.2
2020-Feb-25 23:08 137 0 gusting 6 17.2
2020-Feb-25 23:03 129 1 gusting 6 17.2
2020-Feb-25 22:58 234 17.2
2020-Feb-25 22:53 144 2 gusting 6 17.8
2020-Feb-25 22:47 215 0 gusting 6 17.8
2020-Feb-25 22:42 233 2 gusting 6 17.8
2020-Feb-25 22:37 214 0 gusting 6 17.8
2020-Feb-25 22:32 203 1 gusting 4 17.8
2020-Feb-25 22:27 224 17.8
2020-Feb-25 22:22 154 17.8
2020-Feb-25 22:17 199 3 gusting 6 17.8
2020-Feb-25 22:12 207 0 gusting 4 18.3
2020-Feb-25 22:07 225 18.3
2020-Feb-25 22:02 214 0 gusting 6 18.3
2020-Feb-25 21:57 281 0 gusting 6 18.3
2020-Feb-25 21:51 262 0 gusting 6 18.3
2020-Feb-25 21:46 225 18.3
2020-Feb-25 21:41 260 1 gusting 6 18.9
2020-Feb-25 21:36 210 3 gusting 6 18.9
2020-Feb-25 21:31 268 0 gusting 11 18.9
2020-Feb-25 21:26 259 7 gusting 11 19.4
2020-Feb-25 21:21 266 0 gusting 6 19.4
2020-Feb-25 21:16 189 3 gusting 6 19.4
2020-Feb-25 21:11 160 5 gusting 8 19.4
2020-Feb-25 21:06 250 1 gusting 11 20.0
2020-Feb-25 21:01 281 9 gusting 11 20.0
2020-Feb-25 20:55 273 1 gusting 6 20.0
2020-Feb-25 20:50 337 20.0
2020-Feb-25 20:45 197 1 gusting 8 20.6
2020-Feb-25 20:40 258 20.6
2020-Feb-25 20:35 172 1 gusting 8 20.6
2020-Feb-25 20:30 148 3 gusting 8 20.6
2020-Feb-25 20:25 251 0 gusting 8 20.6
2020-Feb-25 20:20 137 1 gusting 8 20.0
2020-Feb-25 20:15 268 0 gusting 8 20.0
2020-Feb-25 20:10 205 1 gusting 8 20.0
2020-Feb-25 20:05 254 1 gusting 8 20.0
2020-Feb-25 19:59 257 2 gusting 8 20.0
2020-Feb-25 19:54 249 4 gusting 8 20.0
2020-Feb-25 19:49 231 1 gusting 6 20.0
2020-Feb-25 19:44 269 1 gusting 6 20.0
2020-Feb-25 19:39 279 20.0
2020-Feb-25 19:34 254 1 gusting 11 19.4
2020-Feb-25 19:29 258 1 gusting 11 19.4
2020-Feb-25 19:24 177 4 gusting 8 19.4
2020-Feb-25 19:19 254 1 gusting 8 19.4
2020-Feb-25 19:14 126 4 gusting 8 19.4
2020-Feb-25 19:09 116 2 gusting 8 19.4
2020-Feb-25 19:03 275 4 gusting 11 20.0
2020-Feb-25 18:58 112 0 gusting 11 20.0
2020-Feb-25 18:53 126 5 gusting 8 20.0
2020-Feb-25 18:48 186 20.0
2020-Feb-25 18:43 259 7 gusting 11 20.0
2020-Feb-25 18:38 288 7 gusting 13 20.0
2020-Feb-25 18:33 160 2 gusting 13 20.0
2020-Feb-25 18:28 166 0 gusting 8 20.0
2020-Feb-25 18:23 254 20.0
2020-Feb-25 18:18 249 1 gusting 13 19.4
2020-Feb-25 18:13 251 2 gusting 8 19.4
2020-Feb-25 18:07 232 5 gusting 11 19.4
2020-Feb-25 18:02 247 0 gusting 11 18.9
2020-Feb-25 17:57 258 3 gusting 6 18.3
2020-Feb-25 17:52 255 1 gusting 6 18.3
2020-Feb-25 17:47 158 1 gusting 8 17.8
2020-Feb-25 17:42 262 3 gusting 8 17.8
2020-Feb-25 17:37 277 0 gusting 8 17.8
2020-Feb-25 17:32 181 17.8
2020-Feb-25 17:27 239 1 gusting 11 17.8
2020-Feb-25 17:22 280 2 gusting 6 17.8
2020-Feb-25 17:17 254 1 gusting 6 17.8
2020-Feb-25 17:11 236 1 gusting 8 17.8
2020-Feb-25 17:06 251 1 gusting 8 17.8
2020-Feb-25 17:01 135 1 gusting 11 18.3
2020-Feb-25 16:56 260 5 gusting 11 18.3
2020-Feb-25 16:51 138 18.3
2020-Feb-25 16:46 244 0 gusting 13 18.3
2020-Feb-25 16:41 262 1 gusting 8 18.3
2020-Feb-25 16:36 253 3 gusting 11 18.3
2020-Feb-25 16:31 252 2 gusting 11 18.3
2020-Feb-25 16:26 169 2 gusting 8 17.8
2020-Feb-25 16:21 170 17.8
2020-Feb-25 16:15 236 1 gusting 11 17.8
2020-Feb-25 16:10 312 1 gusting 8 17.2
2020-Feb-25 16:05 274 3 gusting 13 17.2
2020-Feb-25 16:00 226 6 gusting 8 17.2
2020-Feb-25 15:55 255 4 gusting 6 16.7
2020-Feb-25 15:50 212 16.7
2020-Feb-25 15:45 250 1 gusting 6 16.7
2020-Feb-25 15:40 203 1 gusting 4 16.1
2020-Feb-25 15:35 259 0 gusting 6 16.1
2020-Feb-25 15:30 273 2 gusting 8 16.1
2020-Feb-25 15:25 138 16.1
2020-Feb-25 15:19 258 1 gusting 8 15.6
2020-Feb-25 15:14 195 1 gusting 8 15.6
2020-Feb-25 15:09 155 1 gusting 8 15.6
2020-Feb-25 15:04 230 15.6
2020-Feb-25 14:59 241 0 gusting 11 15.6
2020-Feb-25 14:54 209 2 gusting 6 15.6
2020-Feb-25 14:49 281 15.6
2020-Feb-25 14:44 265 15.6
2020-Feb-25 14:39 232 2 gusting 8 15.6
2020-Feb-25 14:34 226 15.6
2020-Feb-25 14:29 204 3 gusting 6 15.6
2020-Feb-25 14:23 228 15.0
2020-Feb-25 14:18 183 15.0
2020-Feb-25 14:13 197 15.0
2020-Feb-25 14:08 145 0 gusting 4 15.0
2020-Feb-25 14:03 139 15.0
2020-Feb-25 13:58 163 15.0
2020-Feb-25 13:53 218 15.0
2020-Feb-25 13:48 249 0 gusting 4 15.0
2020-Feb-25 13:43 229 0 gusting 4 15.0
2020-Feb-25 13:38 199 15.0
2020-Feb-25 13:33 232 15.0
2020-Feb-25 13:27 102 15.0
2020-Feb-25 13:22 236 0 gusting 4 15.0
2020-Feb-25 13:17 207 0 gusting 6 15.0
2020-Feb-25 13:12 217 15.0
2020-Feb-25 13:07 156 0 gusting 8 15.0
2020-Feb-25 13:02 169 5 gusting 8 15.0
2020-Feb-25 12:57 252 0 gusting 6 15.0
2020-Feb-25 12:52 116 15.0
2020-Feb-25 12:47 229 0 gusting 6 15.0
2020-Feb-25 12:42 190 1 gusting 6 15.0
2020-Feb-25 12:37 253 0 gusting 6 15.0
2020-Feb-25 12:31 158 1 gusting 6 15.0
2020-Feb-25 12:26 253 1 gusting 6 15.0
2020-Feb-25 12:21 258 0 gusting 6 15.0
2020-Feb-25 12:16 194 0 gusting 4 15.0
2020-Feb-25 12:11 098 15.0
2020-Feb-25 12:06 132 0 gusting 4 15.0
2020-Feb-25 12:01 188 1 gusting 4 15.0
2020-Feb-25 11:56 200 1 gusting 4 15.0
2020-Feb-25 11:51 221 0 gusting 4 15.0
2020-Feb-25 11:46 109 15.0
2020-Feb-25 11:41 221 15.0
2020-Feb-25 11:35 266 15.0
2020-Feb-25 11:30 157 0 gusting 4 15.0
2020-Feb-25 11:25 200 15.0
2020-Feb-25 11:20 189 15.0
2020-Feb-25 11:15 185 1 gusting 6 15.0
2020-Feb-25 11:10 115 2 gusting 6 15.0
2020-Feb-25 11:05 168 3 gusting 6 15.0
2020-Feb-25 11:00 169 14.4
2020-Feb-25 10:55 159 3 gusting 4 14.4
2020-Feb-25 10:50 187 0 gusting 1 14.4
2020-Feb-25 10:45 172 14.4
2020-Feb-25 10:40 199 14.4
2020-Feb-25 10:34 210 14.4
2020-Feb-25 10:29 200 14.4
2020-Feb-25 10:24 100 14.4
2020-Feb-25 10:19 094 14.4
2020-Feb-25 10:14 119 14.4
2020-Feb-25 10:09 251 14.4
2020-Feb-25 10:04 050 14.4
2020-Feb-25 09:59 066 14.4
2020-Feb-25 09:54 066 14.4
2020-Feb-25 09:49 237 14.4
2020-Feb-25 09:43 237 14.4
2020-Feb-25 09:38 234 14.4
2020-Feb-25 09:33 113 14.4
2020-Feb-25 09:28 213 14.4
2020-Feb-25 09:23 213 14.4
2020-Feb-25 09:18 213 14.4
2020-Feb-25 09:13 213 14.4
2020-Feb-25 09:08 214 14.4
2020-Feb-25 09:03 215 15.0
2020-Feb-25 08:58 089 15.0
2020-Feb-25 08:53 078 15.0
2020-Feb-25 08:48 077 15.0
2020-Feb-25 08:42 079 15.0
2020-Feb-25 08:37 081 15.0
2020-Feb-25 08:32 359 15.0
2020-Feb-25 08:27 330 15.0
2020-Feb-25 08:22 264 1 gusting 4 15.0
2020-Feb-25 08:17 261 15.0
2020-Feb-25 08:12 260 15.0
2020-Feb-25 08:07 246 15.0
2020-Feb-25 08:02 023 15.6
2020-Feb-25 07:57 032 15.6
2020-Feb-25 07:52 145 15.6
2020-Feb-25 07:46 230 0 gusting 1 15.6
2020-Feb-25 07:41 282 15.6
2020-Feb-25 07:36 265 15.6
2020-Feb-25 07:31 272 15.6
2020-Feb-25 07:26 238 15.0
2020-Feb-25 07:21 237 15.0
2020-Feb-25 07:16 236 15.0
2020-Feb-25 07:11 243 15.0
2020-Feb-25 07:06 160 15.0
2020-Feb-25 07:01 106 15.0
2020-Feb-25 06:56 034 15.0
2020-Feb-25 06:50 259 15.0
2020-Feb-25 06:45 256 15.0
2020-Feb-25 06:40 151 0 gusting 1 14.4
2020-Feb-25 06:35 228 14.4
2020-Feb-25 06:30 184 14.4
2020-Feb-25 06:25 154 14.4
2020-Feb-25 06:20 281 13.9
2020-Feb-25 06:15 066 13.9
2020-Feb-25 06:10 066 13.9
2020-Feb-25 06:05 063 13.9
2020-Feb-25 06:00 067 13.9
2020-Feb-25 05:54 075 13.9
2020-Feb-25 05:49 065 13.3
2020-Feb-25 05:44 119 13.3
2020-Feb-25 05:39 168 13.3
2020-Feb-25 05:34 168 13.3
2020-Feb-25 05:29 168 13.3
2020-Feb-25 05:24 174 13.3
2020-Feb-25 05:19 188 13.3
2020-Feb-25 05:09 189 13.3
2020-Feb-25 05:04 189 13.3
2020-Feb-25 04:58 190 13.3
2020-Feb-25 04:53 200 13.3
2020-Feb-25 04:48 052 13.3
2020-Feb-25 04:43 052 13.3
2020-Feb-25 04:38 051 13.3
2020-Feb-25 04:33 051 13.3
2020-Feb-25 04:28 050 13.3
2020-Feb-25 04:23 060 13.3
2020-Feb-25 04:18 064 13.3
2020-Feb-25 04:13 122 13.3
2020-Feb-25 04:08 127 13.3
2020-Feb-25 04:03 244 13.3